User: anonymous   Login
Location: Newark
(46.2358°N, 112.1211°W)
Time: 10:54:56
(UTC+00:00)
Language:

N. Korean satellite - Orbit

View from above orbital plane
View from above orbital plane
View from above satellite
View from above satellite

Ground track
Ground track

The orbit data is extracted from the following two-line orbital elements,

1 39026U 12072A   21270.21713847  .00006261  00000-0  20867-3 0  9998
2 39026  97.2523 260.6791 0035836  24.5325 335.7612 15.30822093488658
Epoch (UTC): 27 September 2021 05:12:40
Eccentricity: 0.0035836
inclination: 97.2523°
perigee height: 449 km
apogee height: 498 km
right ascension of ascending node: 260.6791°
argument of perigee: 24.5325°
revolutions per day: 15.30822093
mean anomaly at epoch: 335.7612°
orbit number at epoch: 48865

The dashed part of the orbit path shows where the satellite is in the earth's shadow,  

DLR